"startDT [UTC]","vpos","CH4 [ppm]","stdev(CH4) [ppm]","CO2 [ppm]","stdev(CO2) [ppm]","H2O [ppm]","stdev(H2O)","p_LGR [torr]","T_LGR [C]","mt1_LGR [us]","mt2_LGR [us]","T_ECpre [C]","T_EC1 [C]","T_EC2 [C]","p_inlet [hPa]","p_in [hPa]","p_out [hPa]","T_inlet [C]","RH_inlet [%]","dwpt_inlet [C]","T_vent [C]","RH_vent [%]","dwpt_vent [C]","flow_vent [l min-1]","flow_inlet [l min-1]","dwpt_sample [C]","T_room [C]"
2012-12-16 00:00:00,0.0,1.9033,0.0007,-1.00,0.00,3.4,12.7,138.09,29.25,24.65,36.57,0.04,-272.74,-272.75,-39,558,-931,23.5,1.4,-32.6,23.6,1.4,-32.1,5.73,2.41,-29.3,28.5
2012-12-16 00:01:00,0.0,1.9028,0.0008,-1.00,0.00,0.3,5.1,138.09,29.24,24.66,36.57,0.04,-272.75,-272.75,-39,558,-931,23.5,1.3,-32.7,23.6,1.4,-32.4,5.73,2.41,-29.4,28.5
2012-12-16 00:02:00,0.0,1.9033,0.0009,-1.00,0.00,1.6,7.7,138.09,29.24,24.66,36.58,0.04,-272.75,-272.75,-39,558,-931,23.5,1.3,-32.8,23.6,1.4,-32.3,5.73,2.41,-29.4,28.5
2012-12-16 00:03:00,0.0,1.9029,0.0009,-1.00,0.00,4.7,11.6,138.09,29.24,24.66,36.57,0.04,-272.74,-272.75,-39,558,-930,23.5,1.3,-32.7,23.6,1.4,-32.4,5.73,2.41,-29.4,28.5
2012-12-16 00:04:00,0.0,1.9030,0.0012,-1.00,0.00,1.5,8.0,138.09,29.23,24.66,36.57,0.04,-272.75,-272.75,-39,558,-930,23.5,1.3,-32.8,23.6,1.4,-32.5,5.73,2.42,-29.4,28.5
2012-12-16 00:05:00,0.0,1.9037,0.0009,-1.00,0.00,2.7,12.8,138.09,29.23,24.65,36.57,0.04,-272.75,-272.75,-39,558,-931,23.5,1.3,-33.0,23.6,1.4,-32.6,5.73,2.41,-29.4,28.5
2012-12-16 00:06:00,0.0,1.9033,0.0009,-1.00,0.00,2.2,8.9,138.09,29.23,24.65,36.57,0.04,-272.75,-272.75,-39,558,-931,23.5,1.3,-33.0,23.6,1.4,-32.6,5.73,2.41,-29.4,28.5
2012-12-16 00:07:00,0.0,1.9032,0.0011,-1.00,0.00,3.4,13.3,138.09,29.23,24.65,36.57,0.04,-272.75,-272.75,-39,558,-931,23.5,1.3,-32.9,23.6,1.4,-32.6,5.73,2.41,-29.4,28.5
2012-12-16 00:08:00,0.0,1.9034,0.0011,-1.00,0.00,5.7,15.4,138.09,29.23,24.66,36.57,0.04,-272.75,-272.75,-39,558,-931,23.5,1.3,-33.0,23.6,1.3,-32.7,5.73,2.41,-29.4,28.5
2012-12-16 00:09:00,0.0,1.9034,0.0009,-1.00,0.00,3.8,12.3,138.09,29.22,24.66,36.57,0.04,-272.75,-272.75,-39,558,-931,23.5,1.3,-33.1,23.5,1.3,-32.8,5.73,2.40,-29.4,28.5
2012-12-16 00:10:00,0.0,1.9034,0.0009,-1.00,0.00,1.2,7.3,138.09,29.22,24.65,36.57,0.04,-272.75,-272.75,-39,558,-931,23.5,1.3,-33.1,23.5,1.3,-32.8,5.73,2.40,-29.4,28.5
2012-12-16 00:11:00,0.0,1.9034,0.0009,-1.00,0.00,0.5,6.6,138.09,29.22,24.65,36.57,0.04,-272.75,-272.75,-39,558,-931,23.5,1.3,-33.0,23.5,1.3,-32.7,5.73,2.40,-29.4,28.5
2012-12-16 00:12:00,0.0,1.9031,0.0011,-1.00,0.00,1.0,7.3,138.09,29.22,24.66,36.57,0.04,-272.75,-272.75,-39,558,-931,23.5,1.3,-33.0,23.5,1.4,-32.6,5.73,2.39,-29.4,28.5
2012-12-16 00:13:00,0.0,1.9035,0.0010,-1.00,0.00,2.3,9.6,138.09,29.22,24.65,36.57,0.04,-272.74,-272.75,-39,558,-931,23.5,1.3,-32.8,23.5,1.4,-32.5,5.73,2.39,-29.5,28.5
2012-12-16 00:14:00,0.0,1.9032,0.0009,-1.00,0.00,2.5,10.5,138.09,29.21,24.65,36.57,0.04,-272.75,-272.75,-39,558,-931,23.5,1.3,-32.7,23.5,1.4,-32.3,5.73,2.39,-29.5,28.5
2012-12-16 00:15:00,0.0,1.9029,0.0009,-1.00,0.00,3.2,12.2,138.09,29.21,24.66,36.57,0.04,-272.75,-272.75,-39,558,-931,23.5,1.4,-32.5,23.5,1.4,-32.2,5.73,2.39,-29.5,28.5
2012-12-16 00:16:00,0.0,1.9031,0.0009,-1.00,0.00,4.1,12.1,138.09,29.21,24.65,36.57,0.04,-272.74,-272.75,-39,558,-930,23.4,1.4,-32.4,23.5,1.4,-32.2,5.73,2.38,-29.5,28.5
2012-12-16 00:17:00,0.0,1.9033,0.0008,-1.00,0.00,0.7,7.7,138.09,29.21,24.65,36.57,0.04,-272.75,-272.75,-39,558,-931,23.5,1.4,-32.4,23.5,1.4,-32.2,5.73,2.39,-29.5,28.5
2012-12-16 00:18:00,0.0,1.9031,0.0011,-1.00,0.00,2.7,9.1,138.08,29.21,24.66,36.56,0.04,-272.75,-272.75,-39,558,-931,23.5,1.4,-32.4,23.5,1.4,-32.2,5.73,2.39,-29.5,28.5
2012-12-16 00:19:00,0.0,1.9030,0.0009,-1.00,0.00,1.2,8.1,138.09,29.21,24.66,36.56,0.04,-272.75,-272.75,-39,558,-931,23.5,1.4,-32.4,23.5,1.4,-32.0,5.73,2.41,-29.5,28.5
2012-12-16 00:20:00,0.0,1.9034,0.0010,-1.00,0.00,3.6,11.0,138.09,29.21,24.65,36.57,0.04,-272.75,-272.75,-39,558,-931,23.5,1.4,-32.4,23.5,1.4,-32.1,5.73,2.40,-29.5,28.5
2012-12-16 00:21:00,0.0,1.9029,0.0010,-1.00,0.00,3.4,11.6,138.09,29.20,24.66,36.57,0.04,-272.75,-272.75,-39,558,-931,23.5,1.4,-32.4,23.5,1.4,-32.0,5.73,2.41,-29.5,28.5
2012-12-16 00:22:00,0.0,1.9029,0.0010,-1.00,0.00,2.4,11.2,138.09,29.20,24.66,36.57,0.04,-272.75,-272.75,-39,558,-930,23.4,1.4,-32.4,23.5,1.4,-32.0,5.73,2.41,-29.5,28.5
2012-12-16 00:23:00,0.0,1.9033,0.0008,-1.00,0.00,1.7,8.0,138.09,29.20,24.65,36.57,0.04,-272.75,-272.75,-39,558,-931,23.5,1.4,-32.4,23.5,1.4,-32.0,5.73,2.42,-29.5,28.5
2012-12-16 00:24:00,0.0,1.9035,0.0010,-1.00,0.00,0.8,5.9,138.09,29.20,24.66,36.57,0.04,-272.75,-272.75,-39,558,-931,23.4,1.4,-32.4,23.5,1.4,-32.1,5.73,2.41,-29.5,28.5
2012-12-16 00:25:00,0.0,1.9034,0.0009,-1.00,0.00,1.0,6.2,138.09,29.19,24.66,36.57,0.04,-272.75,-272.75,-39,558,-931,23.4,1.4,-32.4,23.5,1.4,-32.2,5.73,2.41,-29.5,28.5
2012-12-16 00:26:00,0.0,1.9033,0.0009,-1.00,0.00,2.9,10.5,138.09,29.19,24.66,36.57,0.04,-272.75,-272.75,-39,558,-931,23.5,1.4,-32.5,23.5,1.4,-32.2,5.73,2.41,-29.5,28.5
2012-12-16 00:27:00,0.0,1.9037,0.0009,-1.00,0.00,2.5,9.1,138.09,29.19,24.65,36.56,0.04,-272.75,-272.75,-39,558,-930,23.5,1.4,-32.6,23.5,1.4,-32.2,5.73,2.41,-29.5,28.5
2012-12-16 00:28:00,0.0,1.9036,0.0009,-1.00,0.00,3.3,9.4,138.09,29.19,24.65,36.57,0.04,-272.75,-272.75,-39,558,-930,23.5,1.4,-32.6,23.5,1.4,-32.2,5.73,2.41,-29.6,28.5
2012-12-16 00:29:00,0.0,1.9038,0.0010,-1.00,0.00,0.2,5.8,138.09,29.18,24.65,36.57,0.04,-272.75,-272.75,-39,558,-931,23.5,1.4,-32.7,23.5,1.4,-32.2,5.73,2.40,-29.6,28.5
2012-12-16 00:30:00,0.0,1.9039,0.0009,-1.00,0.00,-0.0,5.1,138.09,29.18,24.65,36.57,0.04,-272.75,-272.75,-39,558,-931,23.5,1.4,-32.6,23.5,1.4,-32.2,5.73,2.40,-29.6,28.5
2012-12-16 00:31:00,0.0,1.9037,0.0011,-1.00,0.00,-0.3,2.6,138.09,29.18,24.66,36.56,0.04,-272.75,-272.75,-39,558,-931,23.5,1.4,-32.6,23.5,1.4,-32.4,5.73,2.40,-29.6,28.5
2012-12-16 00:32:00,0.0,1.9035,0.0008,-1.00,0.00,3.3,11.2,138.09,29.18,24.66,36.57,0.04,-272.75,-272.75,-39,558,-931,23.5,1.4,-32.6,23.5,1.4,-32.3,5.73,2.39,-29.6,28.5
2012-12-16 00:33:00,0.0,1.9037,0.0009,-1.00,0.00,2.3,12.8,138.09,29.17,24.65,36.57,0.04,-272.75,-272.75,-39,558,-930,23.5,1.4,-32.6,23.5,1.4,-32.3,5.73,2.39,-29.6,28.4
2012-12-16 00:34:00,0.0,1.9031,0.0009,-1.00,0.00,3.5,11.5,138.09,29.17,24.66,36.57,0.04,-272.75,-272.75,-39,558,-930,23.5,1.4,-32.5,23.5,1.4,-32.1,5.73,2.39,-29.6,28.5
2012-12-16 00:35:00,0.0,1.9032,0.0008,-1.00,0.00,2.5,9.2,138.09,29.17,24.65,36.57,0.04,-272.75,-272.75,-39,558,-931,23.5,1.4,-32.3,23.5,1.4,-32.0,5.73,2.39,-29.6,28.5
2012-12-16 00:36:00,0.0,1.9035,0.0010,-1.00,0.00,4.7,12.0,138.09,29.17,24.65,36.57,0.04,-272.75,-272.75,-39,558,-931,23.4,1.4,-32.2,23.5,1.5,-31.8,5.73,2.39,-29.6,28.5
2012-12-16 00:37:00,0.0,1.9031,0.0009,-1.00,0.00,2.9,10.5,138.09,29.17,24.65,36.57,0.04,-272.75,-272.75,-39,558,-931,23.5,1.4,-32.2,23.5,1.5,-31.8,5.73,2.39,-29.6,28.5
2012-12-16 00:38:00,0.0,1.9034,0.0009,-1.00,0.00,1.0,7.7,138.09,29.16,24.65,36.57,0.04,-272.75,-272.75,-39,558,-930,23.5,1.4,-32.0,23.5,1.5,-31.6,5.73,2.39,-29.6,28.5
2012-12-16 00:39:00,0.0,1.9036,0.0010,-1.00,0.00,1.9,6.9,138.09,29.16,24.65,36.57,0.04,-272.75,-272.76,-39,558,-930,23.4,1.4,-32.1,23.5,1.5,-31.7,5.73,2.40,-29.6,28.5
2012-12-16 00:40:00,0.0,1.9028,0.0008,-1.00,0.00,1.9,8.6,138.09,29.16,24.66,36.57,0.04,-272.75,-272.75,-39,558,-930,23.4,1.4,-32.2,23.5,1.5,-31.8,5.73,2.40,-29.6,28.5
2012-12-16 00:41:00,0.0,1.9026,0.0011,-1.00,0.00,1.2,8.0,138.09,29.15,24.66,36.57,0.04,-272.75,-272.75,-39,558,-931,23.5,1.4,-32.2,23.5,1.5,-31.8,5.73,2.41,-29.6,28.5
2012-12-16 00:42:00,0.0,1.9031,0.0008,-1.00,0.00,4.0,10.7,138.09,29.15,24.66,36.57,0.04,-272.75,-272.75,-39,558,-931,23.5,1.4,-32.2,23.5,1.4,-32.0,5.73,2.41,-29.7,28.5
2012-12-16 00:43:00,0.0,1.9032,0.0011,-1.00,0.00,0.4,5.7,138.09,29.15,24.65,36.57,0.04,-272.75,-272.75,-39,558,-931,23.5,1.4,-32.2,23.5,1.4,-32.0,5.73,2.42,-29.6,28.5
2012-12-16 00:44:00,0.0,1.9028,0.0010,-1.00,0.00,3.0,11.0,138.09,29.15,24.66,36.57,0.04,-272.75,-272.75,-39,558,-930,23.5,1.4,-32.2,23.5,1.4,-32.0,5.73,2.41,-29.7,28.5
2012-12-16 00:45:00,0.0,1.9032,0.0010,-1.00,0.00,1.3,8.2,138.09,29.15,24.65,36.57,0.04,-272.75,-272.75,-39,557,-930,23.4,1.4,-32.2,23.5,1.4,-32.0,5.73,2.42,-29.6,28.4
2012-12-16 00:46:00,0.0,1.9033,0.0010,-1.00,0.00,0.7,7.2,138.09,29.14,24.65,36.57,0.04,-272.75,-272.75,-39,557,-931,23.5,1.4,-32.2,23.5,1.4,-32.0,5.73,2.41,-29.7,28.5
2012-12-16 00:47:00,0.0,1.9031,0.0009,-1.00,0.00,0.1,3.5,138.09,29.14,24.66,36.57,0.04,-272.75,-272.75,-39,558,-931,23.5,1.4,-32.2,23.5,1.5,-31.9,5.73,2.41,-29.7,28.5
2012-12-16 00:48:00,0.0,1.9031,0.0011,-1.00,0.00,0.9,6.1,138.09,29.14,24.66,36.57,0.04,-272.75,-272.75,-39,558,-931,23.5,1.4,-32.2,23.5,1.4,-32.0,5.73,2.41,-29.7,28.5
2012-12-16 00:49:00,0.0,1.9032,0.0009,-1.00,0.00,1.1,6.2,138.09,29.14,24.66,36.57,0.04,-272.75,-272.75,-39,558,-930,23.5,1.4,-32.2,23.5,1.4,-32.0,5.73,2.41,-29.7,28.5
2012-12-16 00:50:00,0.0,1.9032,0.0011,-1.00,0.00,0.0,3.9,138.09,29.13,24.65,36.57,0.04,-272.74,-272.74,-39,558,-930,23.5,1.4,-32.2,23.5,1.4,-32.0,5.73,2.40,-29.7,28.5
2012-12-16 00:51:00,0.0,1.9029,0.0008,-1.00,0.00,3.1,12.2,138.09,29.13,24.66,36.57,0.04,-272.75,-272.75,-39,558,-931,23.5,1.4,-32.2,23.5,1.4,-32.0,5.73,2.40,-29.7,28.4
2012-12-16 00:52:00,0.0,1.9035,0.0011,-1.00,0.00,1.2,6.4,138.09,29.13,24.65,36.56,0.04,-272.75,-272.75,-39,557,-931,23.4,1.4,-32.3,23.5,1.4,-32.0,5.73,2.40,-29.7,28.5
2012-12-16 00:53:00,0.0,1.9033,0.0009,-1.00,0.00,2.9,10.0,138.09,29.12,24.65,36.57,0.04,-272.75,-272.75,-39,558,-931,23.5,1.4,-32.4,23.5,1.4,-32.0,5.73,2.40,-29.7,28.5
2012-12-16 00:54:00,0.0,1.9030,0.0009,-1.00,0.00,1.9,8.0,138.09,29.12,24.66,36.57,0.04,-272.75,-272.75,-39,558,-930,23.5,1.4,-32.4,23.5,1.4,-32.0,5.73,2.39,-29.7,28.5
2012-12-16 00:55:00,0.0,1.9033,0.0012,-1.00,0.00,1.4,8.9,138.09,29.12,24.65,36.57,0.04,-272.75,-272.75,-39,558,-931,23.4,1.4,-32.2,23.5,1.5,-31.9,5.73,2.39,-29.7,28.4
2012-12-16 00:56:00,0.0,1.9031,0.0008,-1.00,0.00,0.2,4.2,138.09,29.12,24.65,36.56,0.04,-272.75,-272.75,-39,558,-931,23.4,1.4,-32.2,23.5,1.5,-31.8,5.73,2.39,-29.7,28.4
2012-12-16 00:57:00,0.0,1.9031,0.0010,-1.00,0.00,4.3,13.2,138.09,29.11,24.66,36.57,0.04,-272.75,-272.75,-39,557,-931,23.5,1.4,-32.2,23.5,1.5,-31.8,5.73,2.39,-29.7,28.4
2012-12-16 00:58:00,0.0,1.9035,0.0009,-1.00,0.00,0.9,7.2,138.09,29.11,24.66,36.57,0.04,-272.75,-272.75,-39,558,-930,23.4,1.4,-32.2,23.5,1.5,-31.9,5.73,2.40,-29.7,28.4
2012-12-16 00:59:00,0.0,1.9040,0.0010,-1.00,0.00,0.9,7.0,138.09,29.11,24.66,36.57,0.04,-272.75,-272.75,-39,557,-930,23.4,1.4,-32.2,23.5,1.5,-31.9,5.73,2.40,-29.7,28.4
2012-12-16 01:00:00,0.0,1.9035,0.0010,-1.00,0.00,1.2,7.8,138.09,29.11,24.65,36.56,0.04,-272.75,-272.75,-39,557,-931,23.4,1.4,-32.2,23.5,1.5,-31.9,5.73,2.40,-29.7,28.4
2012-12-16 01:01:00,0.0,1.9040,0.0009,-1.00,0.00,1.1,7.4,138.09,29.11,24.65,36.57,0.04,-272.75,-272.75,-39,557,-931,23.4,1.4,-32.2,23.5,1.5,-32.0,5.73,2.40,-29.7,28.4
2012-12-16 01:02:00,0.0,1.9036,0.0008,-1.00,0.00,1.2,11.1,138.09,29.11,24.65,36.57,0.04,-272.75,-272.75,-39,557,-931,23.4,1.4,-32.3,23.5,1.4,-32.0,5.73,2.40,-29.7,28.4
2012-12-16 01:03:00,0.0,1.9036,0.0008,-1.00,0.00,0.0,4.0,138.09,29.10,24.65,36.57,0.04,-272.75,-272.75,-39,557,-930,23.4,1.4,-32.4,23.5,1.4,-32.0,5.73,2.41,-29.8,28.4
2012-12-16 01:04:00,0.0,1.9033,0.0011,-1.00,0.00,-0.8,1.0,138.09,29.10,24.66,36.57,0.04,-272.75,-272.74,-39,557,-930,23.4,1.4,-32.4,23.5,1.4,-32.0,5.73,2.41,-29.8,28.4
2012-12-16 01:05:00,0.0,1.9029,0.0009,-1.00,0.00,0.8,6.4,138.09,29.09,24.66,36.57,0.04,-272.75,-272.75,-39,557,-931,23.4,1.4,-32.4,23.5,1.4,-32.0,5.73,2.41,-29.8,28.4
2012-12-16 01:06:00,0.0,1.9034,0.0011,-1.00,0.00,-0.0,3.4,138.09,29.09,24.66,36.57,0.04,-272.75,-272.75,-39,557,-931,23.4,1.4,-32.3,23.5,1.4,-32.0,5.73,2.41,-29.8,28.5
2012-12-16 01:07:00,0.0,1.9030,0.0012,-1.00,0.00,-0.6,2.2,138.09,29.09,24.65,36.56,0.04,-272.74,-272.75,-39,557,-930,23.4,1.4,-32.2,23.4,1.4,-32.0,5.73,2.41,-29.8,28.4
2012-12-16 01:08:00,0.0,1.9031,0.0009,-1.00,0.00,-0.0,5.1,138.09,29.08,24.65,36.57,0.04,-272.75,-272.75,-39,557,-930,23.4,1.4,-32.3,23.4,1.5,-31.8,5.73,2.41,-29.8,28.4
2012-12-16 01:09:00,0.0,1.9027,0.0009,-1.00,0.00,0.3,8.0,138.09,29.08,24.66,36.57,0.04,-272.75,-272.75,-39,557,-931,23.4,1.4,-32.1,23.4,1.5,-31.8,5.73,2.41,-29.8,28.4
2012-12-16 01:10:00,0.0,1.9029,0.0009,-1.00,0.00,0.9,7.3,138.09,29.08,24.65,36.56,0.04,-272.74,-272.75,-39,557,-931,23.4,1.4,-32.0,23.4,1.5,-31.6,5.73,2.41,-29.8,28.4
2012-12-16 01:11:00,0.0,1.9031,0.0009,-1.00,0.00,2.6,9.3,138.09,29.08,24.65,36.57,0.04,-272.75,-272.75,-39,557,-931,23.4,1.4,-32.1,23.4,1.5,-31.6,5.73,2.42,-29.8,28.4
2012-12-16 01:12:00,0.0,1.9031,0.0010,-1.00,0.00,1.3,6.5,138.09,29.07,24.65,36.56,0.04,-272.75,-272.75,-39,557,-930,23.4,1.4,-32.1,23.4,1.5,-31.6,5.73,2.41,-29.8,28.4
2012-12-16 01:13:00,0.0,1.9023,0.0011,-1.00,0.00,-0.7,1.7,138.09,29.07,24.66,36.57,0.04,-272.75,-272.75,-39,557,-930,23.4,1.4,-32.0,23.4,1.5,-31.7,5.73,2.40,-29.8,28.4
2012-12-16 01:14:00,0.0,1.9025,0.0008,-1.00,0.00,1.1,9.2,138.09,29.07,24.66,36.57,0.04,-272.75,-272.75,-39,557,-931,23.4,1.4,-32.1,23.4,1.5,-31.6,5.73,2.40,-29.8,28.4
2012-12-16 01:15:00,0.0,1.9028,0.0008,-1.00,0.00,-0.3,3.6,138.09,29.07,24.65,36.57,0.04,-272.75,-272.75,-39,557,-931,23.4,1.5,-31.9,23.4,1.5,-31.7,5.73,2.40,-29.8,28.4
2012-12-16 01:16:00,0.0,1.9031,0.0010,-1.00,0.00,0.9,9.1,138.09,29.06,24.65,36.57,0.04,-272.75,-272.75,-39,557,-931,23.4,1.5,-31.8,23.4,1.5,-31.6,5.73,2.40,-29.8,28.4
2012-12-16 01:17:00,0.0,1.9030,0.0010,-1.00,0.00,0.9,7.6,138.09,29.06,24.65,36.57,0.04,-272.75,-272.74,-39,557,-930,23.4,1.5,-31.9,23.4,1.5,-31.5,5.73,2.40,-29.8,28.4
2012-12-16 01:18:00,0.0,1.9029,0.0010,-1.00,0.00,0.3,5.3,138.09,29.06,24.66,36.57,0.04,-272.75,-272.75,-39,557,-930,23.4,1.5,-31.9,23.4,1.5,-31.5,5.73,2.39,-29.8,28.3
2012-12-16 01:19:00,0.0,1.9027,0.0010,-1.00,0.00,0.1,4.6,138.09,29.06,24.66,36.56,0.04,-272.75,-272.75,-39,557,-931,23.3,1.5,-31.9,23.4,1.5,-31.5,5.73,2.40,-29.9,28.3
2012-12-16 01:20:00,0.0,1.9027,0.0010,-1.00,0.00,3.4,13.6,138.09,29.05,24.66,36.57,0.04,-272.74,-272.75,-39,557,-931,23.4,1.5,-31.9,23.4,1.5,-31.5,5.73,2.39,-29.9,28.3
2012-12-16 01:21:00,0.0,1.9026,0.0011,-1.00,0.00,-0.8,1.1,138.09,29.05,24.65,36.57,0.04,-272.75,-272.75,-39,557,-930,23.4,1.5,-31.8,23.4,1.5,-31.5,5.73,2.39,-29.9,28.4
2012-12-16 01:22:00,0.0,1.9027,0.0011,-1.00,0.00,3.1,11.4,138.09,29.04,24.65,36.56,0.04,-272.75,-272.75,-39,557,-930,23.3,1.5,-31.9,23.4,1.5,-31.5,5.73,2.40,-29.9,28.3
2012-12-16 01:23:00,0.0,1.9030,0.0009,-1.00,0.00,-0.2,3.0,138.09,29.04,24.65,36.57,0.04,-272.75,-272.75,-39,557,-931,23.4,1.5,-31.9,23.4,1.5,-31.5,5.73,2.39,-29.9,28.3
2012-12-16 01:24:00,0.0,1.9029,0.0010,-1.00,0.00,0.3,6.5,138.09,29.04,24.65,36.57,0.04,-272.75,-272.75,-39,557,-931,23.3,1.5,-31.9,23.4,1.5,-31.5,5.73,2.40,-29.9,28.3
2012-12-16 01:25:00,0.0,1.9030,0.0009,-1.00,0.00,0.7,6.5,138.09,29.03,24.65,36.57,0.04,-272.75,-272.75,-39,557,-931,23.3,1.5,-31.9,23.4,1.5,-31.5,5.73,2.40,-29.9,28.3
2012-12-16 01:26:00,0.0,1.9031,0.0009,-1.00,0.00,1.4,7.5,138.09,29.03,24.65,36.57,0.04,-272.75,-272.75,-39,557,-930,23.3,1.4,-32.1,23.4,1.5,-31.7,5.73,2.40,-29.9,28.3
2012-12-16 01:27:00,0.0,1.9027,0.0011,-1.00,0.00,-0.0,3.7,138.09,29.02,24.66,36.57,0.04,-272.75,-272.75,-39,557,-931,23.3,1.4,-32.0,23.3,1.5,-31.7,5.73,2.40,-29.9,28.3
2012-12-16 01:28:00,0.0,1.9028,0.0010,-1.00,0.00,0.2,6.0,138.09,29.02,24.65,36.57,0.04,-272.75,-272.75,-39,557,-931,23.3,1.4,-32.2,23.3,1.5,-31.9,5.73,2.41,-29.9,28.3
2012-12-16 01:29:00,0.0,1.9030,0.0008,-1.00,0.00,0.3,4.7,138.09,29.02,24.65,36.57,0.04,-272.75,-272.75,-39,557,-931,23.3,1.4,-32.3,23.3,1.5,-31.9,5.73,2.41,-29.9,28.3
2012-12-16 01:30:00,0.0,1.9029,0.0011,-1.00,0.00,-0.1,4.4,138.09,29.01,24.65,36.57,0.04,-272.75,-272.74,-39,557,-930,23.3,1.4,-32.3,23.3,1.5,-31.9,5.73,2.41,-29.9,28.3
2012-12-16 01:31:00,0.0,1.9027,0.0011,-1.00,0.00,0.4,5.8,138.09,29.01,24.65,36.57,0.04,-272.75,-272.75,-39,557,-930,23.3,1.4,-32.2,23.3,1.5,-31.9,5.73,2.41,-29.9,28.3
2012-12-16 01:32:00,0.0,1.9027,0.0010,-1.00,0.00,0.5,5.0,138.09,29.01,24.65,36.56,0.04,-272.75,-272.75,-39,557,-931,23.3,1.4,-32.3,23.3,1.5,-31.9,5.73,2.42,-29.9,28.3
2012-12-16 01:33:00,0.0,1.9024,0.0009,-1.00,0.00,-0.6,1.9,138.09,29.01,24.66,36.57,0.04,-272.75,-272.75,-39,557,-931,23.3,1.4,-32.1,23.3,1.5,-31.9,5.73,2.41,-29.9,28.3
2012-12-16 01:34:00,0.0,1.9027,0.0010,-1.00,0.00,-0.4,2.6,138.09,29.01,24.65,36.57,0.04,-272.75,-272.75,-39,557,-930,23.3,1.4,-32.1,23.3,1.5,-31.9,5.73,2.42,-29.9,28.3
2012-12-16 01:35:00,0.0,1.9025,0.0009,-1.00,0.00,-0.1,3.7,138.09,29.00,24.66,36.57,0.27,-270.84,-272.65,-39,557,-930,23.3,1.4,-32.3,23.3,1.5,-32.0,5.42,2.51,-33.9,28.3
2012-12-16 01:36:00,0.0,1.9032,0.0009,-1.00,0.00,-0.2,3.8,138.09,29.00,24.65,36.57,0.04,-272.75,-272.75,-39,557,-931,23.3,1.4,-32.3,23.3,1.5,-31.9,5.73,2.41,-29.9,28.3
2012-12-16 01:37:00,0.0,1.9034,0.0010,-1.00,0.00,-0.0,4.0,138.09,29.00,24.65,36.56,0.04,-272.75,-272.75,-39,557,-931,23.3,1.4,-32.3,23.3,1.5,-31.9,5.73,2.42,-29.9,28.2
2012-12-16 01:38:00,0.0,1.9033,0.0008,-1.00,0.00,0.7,7.1,138.09,29.00,24.65,36.57,0.04,-272.75,-272.75,-39,557,-930,23.3,1.4,-32.3,23.3,1.5,-31.9,5.73,2.41,-29.9,28.3
2012-12-16 01:39:00,0.0,1.9032,0.0010,-1.00,0.00,-0.2,2.9,138.09,28.99,24.65,36.57,0.04,-272.75,-272.75,-39,557,-930,23.3,1.4,-32.3,23.3,1.4,-32.1,5.73,2.41,-29.9,28.3
2012-12-16 01:40:00,0.0,1.9032,0.0010,-1.00,0.00,0.6,7.9,138.09,28.99,24.66,36.57,0.04,-272.75,-272.75,-39,557,-931,23.3,1.4,-32.5,23.3,1.4,-32.1,5.73,2.41,-29.9,28.2
2012-12-16 01:41:00,0.0,1.9035,0.0011,-1.00,0.00,2.8,12.3,138.09,28.99,24.65,36.57,0.04,-272.75,-272.75,-39,557,-930,23.3,1.4,-32.5,23.3,1.4,-32.1,5.73,2.41,-29.9,28.2
2012-12-16 01:42:00,0.0,1.9030,0.0009,-1.00,0.00,-1.0,0.0,138.09,28.98,24.65,36.57,0.04,-272.75,-272.75,-39,557,-930,23.2,1.4,-32.5,23.3,1.4,-32.1,5.73,2.41,-30.0,28.2
2012-12-16 01:43:00,0.0,1.9035,0.0010,-1.00,0.00,0.8,5.4,138.09,28.98,24.65,36.57,0.04,-272.75,-272.75,-39,557,-931,23.3,1.4,-32.3,23.3,1.4,-32.1,5.73,2.40,-29.9,28.2
2012-12-16 01:44:00,0.0,1.9034,0.0011,-1.00,0.00,0.1,5.3,138.09,28.98,24.65,36.57,0.04,-272.75,-272.75,-39,557,-930,23.3,1.4,-32.3,23.3,1.5,-31.9,5.73,2.40,-29.9,28.2
2012-12-16 01:45:00,0.0,1.9029,0.0012,-1.00,0.00,1.7,9.5,138.09,28.97,24.65,36.56,0.04,-272.75,-272.75,-39,557,-930,23.2,1.4,-32.2,23.3,1.5,-31.8,5.73,2.40,-30.0,28.2
2012-12-16 01:46:00,0.0,1.9030,0.0009,-1.00,0.00,-0.4,2.9,138.09,28.97,24.65,36.57,0.04,-272.75,-272.75,-39,557,-930,23.2,1.4,-32.1,23.3,1.5,-31.7,5.73,2.40,-29.9,28.2
2012-12-16 01:47:00,0.0,1.9029,0.0010,-1.00,0.00,0.8,7.7,138.09,28.97,24.65,36.57,0.04,-272.75,-272.75,-39,557,-931,23.3,1.4,-32.1,23.3,1.5,-31.8,5.73,2.40,-30.0,28.2
2012-12-16 01:48:00,0.0,1.9026,0.0010,-1.00,0.00,-0.1,3.8,138.09,28.96,24.65,36.57,0.04,-272.75,-272.75,-39,557,-930,23.3,1.4,-32.1,23.3,1.5,-31.7,5.73,2.40,-30.0,28.2
2012-12-16 01:49:00,0.0,1.9025,0.0010,-1.00,0.00,-0.5,2.5,138.09,28.96,24.65,36.57,0.04,-272.75,-272.75,-39,557,-930,23.2,1.4,-32.1,23.3,1.5,-31.7,5.73,2.39,-30.0,28.2
2012-12-16 01:50:00,0.0,1.9028,0.0009,-1.00,0.00,0.6,8.1,138.09,28.96,24.65,36.57,0.04,-272.75,-272.75,-39,557,-931,23.3,1.4,-32.2,23.3,1.5,-31.7,5.73,2.40,-30.0,28.2
2012-12-16 01:51:00,0.0,1.9021,0.0010,-1.00,0.00,1.1,8.4,138.09,28.96,24.65,36.57,0.04,-272.75,-272.75,-39,557,-930,23.3,1.5,-31.9,23.3,1.5,-31.5,5.73,2.40,-30.0,28.2
2012-12-16 01:52:00,0.0,1.9025,0.0011,-1.00,0.00,0.2,8.0,138.09,28.95,24.65,36.57,0.04,-272.75,-272.75,-39,557,-930,23.3,1.5,-31.9,23.3,1.5,-31.5,5.73,2.40,-30.0,28.2
2012-12-16 01:53:00,0.0,1.9022,0.0010,-1.00,0.00,0.2,7.6,138.09,28.95,24.66,36.56,0.04,-272.75,-272.75,-39,557,-931,23.3,1.5,-31.8,23.3,1.5,-31.5,5.73,2.40,-30.0,28.2
2012-12-16 01:54:00,0.0,1.9023,0.0011,-1.00,0.00,-0.9,1.1,138.09,28.94,24.66,36.57,0.04,-272.75,-272.75,-39,557,-930,23.3,1.5,-31.8,23.3,1.5,-31.5,5.73,2.40,-30.0,28.2
2012-12-16 01:55:00,0.0,1.9026,0.0011,-1.00,0.00,-0.1,3.3,138.09,28.94,24.65,36.57,0.04,-272.75,-272.75,-39,557,-930,23.2,1.5,-31.9,23.3,1.5,-31.6,5.73,2.40,-30.0,28.2
2012-12-16 01:56:00,0.0,1.9027,0.0010,-1.00,0.00,1.3,8.9,138.09,28.94,24.65,36.56,0.04,-272.75,-272.75,-39,557,-930,23.2,1.5,-31.9,23.3,1.5,-31.5,5.73,2.40,-29.9,28.2
2012-12-16 01:57:00,0.0,1.9029,0.0010,-1.00,0.00,0.5,6.5,138.09,28.93,24.65,36.56,0.04,-272.75,-272.75,-39,557,-930,23.2,1.5,-31.9,23.3,1.5,-31.5,5.73,2.40,-29.9,28.2
2012-12-16 01:58:00,0.0,1.9027,0.0010,-1.00,0.00,-0.6,2.7,138.09,28.93,24.65,36.57,0.04,-272.75,-272.75,-39,557,-930,23.3,1.5,-31.9,23.3,1.5,-31.6,5.73,2.40,-30.0,28.2
2012-12-16 01:59:00,0.0,1.9027,0.0010,-1.00,0.00,0.5,7.0,138.09,28.93,24.65,36.57,0.04,-272.75,-272.75,-39,557,-930,23.2,1.5,-31.8,23.3,1.5,-31.5,5.73,2.40,-30.0,28.2
2012-12-16 02:00:00,0.0,1.9023,0.0010,-1.00,0.00,0.9,6.9,138.09,28.92,24.65,36.56,0.04,-272.75,-272.75,-39,556,-930,23.2,1.5,-31.7,23.3,1.6,-31.3,5.73,2.40,-30.0,28.2
2012-12-16 02:01:00,0.0,1.9024,0.0011,-1.00,0.00,-0.8,1.2,138.09,28.92,24.65,36.56,0.04,-272.74,-272.75,-39,556,-930,23.2,1.5,-31.6,23.2,1.6,-31.3,5.73,2.40,-30.0,28.2
2012-12-16 02:02:00,0.0,1.9025,0.0009,-1.00,0.00,-0.5,2.8,138.09,28.91,24.65,36.56,0.04,-272.75,-272.75,-39,556,-930,23.2,1.5,-31.5,23.2,1.6,-31.2,5.73,2.40,-30.0,28.2
2012-12-16 02:03:00,0.0,1.9029,0.0009,-1.00,0.00,0.1,5.0,138.09,28.91,24.65,36.56,0.04,-272.75,-272.75,-39,556,-930,23.2,1.6,-31.3,23.2,1.6,-31.0,5.73,2.41,-30.0,28.2
2012-12-16 02:04:00,0.0,1.9028,0.0009,-1.00,0.00,-0.2,3.8,138.10,28.90,24.65,36.57,0.04,-272.74,-272.75,-39,557,-930,23.2,1.6,-31.3,23.2,1.6,-31.0,5.73,2.41,-30.0,28.2
2012-12-16 02:05:00,0.0,1.9032,0.0011,-1.00,0.00,0.3,7.0,138.10,28.90,24.65,36.57,0.04,-272.75,-272.75,-39,557,-930,23.2,1.6,-31.3,23.2,1.6,-31.0,5.73,2.41,-30.0,28.2
2012-12-16 02:06:00,0.0,1.9033,0.0008,-1.00,0.00,0.4,6.4,138.10,28.90,24.65,36.56,0.04,-272.75,-272.75,-39,556,-930,23.2,1.6,-31.3,23.2,1.6,-31.1,5.73,2.41,-30.0,28.2
2012-12-16 02:07:00,0.0,1.9030,0.0011,-1.00,0.00,0.4,6.6,138.10,28.89,24.66,36.57,0.04,-272.75,-272.75,-39,556,-930,23.2,1.6,-31.3,23.2,1.6,-31.0,5.73,2.41,-30.0,28.2
2012-12-16 02:08:00,0.0,1.9031,0.0010,-1.00,0.00,-0.5,2.1,138.09,28.89,24.65,36.56,0.04,-272.75,-272.74,-39,556,-930,23.2,1.6,-31.3,23.2,1.6,-31.0,5.73,2.41,-30.0,28.2
2012-12-16 02:09:00,0.0,1.9034,0.0009,-1.00,0.00,0.2,5.4,138.10,28.89,24.65,36.57,0.04,-272.75,-272.75,-39,557,-930,23.2,1.5,-31.5,23.2,1.6,-31.2,5.73,2.41,-30.0,28.2
2012-12-16 02:10:00,0.0,1.9032,0.0009,-1.00,0.00,-0.7,1.9,138.10,28.88,24.65,36.57,0.04,-272.75,-272.75,-39,556,-930,23.2,1.6,-31.4,23.2,1.6,-31.2,5.73,2.41,-30.0,28.1
2012-12-16 02:11:00,0.0,1.9035,0.0009,-1.00,0.00,0.0,5.5,138.10,28.88,24.65,36.56,0.04,-272.75,-272.75,-39,556,-930,23.2,1.5,-31.5,23.2,1.6,-31.2,5.73,2.41,-30.0,28.1
2012-12-16 02:12:00,0.0,1.9031,0.0009,-1.00,0.00,0.3,5.3,138.10,28.87,24.65,36.57,0.04,-272.75,-272.75,-39,556,-930,23.2,1.5,-31.6,23.2,1.6,-31.2,5.73,2.41,-30.0,28.1
2012-12-16 02:13:00,0.0,1.9034,0.0011,-1.00,0.00,0.1,4.5,138.10,28.87,24.65,36.56,0.04,-272.75,-272.75,-39,556,-930,23.2,1.5,-31.6,23.2,1.6,-31.2,5.73,2.41,-30.0,28.1
2012-12-16 02:14:00,0.0,1.9034,0.0011,-1.00,0.00,-0.9,0.7,138.10,28.87,24.65,36.57,0.04,-272.75,-272.75,-39,556,-930,23.2,1.5,-31.6,23.2,1.6,-31.2,5.73,2.41,-30.0,28.1
2012-12-16 02:15:00,0.0,1.9030,0.0009,-1.00,0.00,-0.7,1.5,138.10,28.86,24.65,36.56,0.04,-272.75,-272.75,-39,557,-930,23.2,1.5,-31.6,23.2,1.6,-31.2,5.73,2.41,-30.0,28.1
2012-12-16 02:16:00,0.0,1.9033,0.0011,-1.00,0.00,-0.4,3.3,138.10,28.86,24.65,36.56,0.04,-272.75,-272.75,-39,556,-930,23.2,1.6,-31.4,23.2,1.6,-31.2,5.73,2.41,-30.0,28.1
2012-12-16 02:17:00,0.0,1.9035,0.0009,-1.00,0.00,0.1,6.6,138.09,28.86,24.65,36.56,0.04,-272.75,-272.75,-39,556,-930,23.2,1.6,-31.4,23.2,1.6,-31.1,5.73,2.41,-30.0,28.1
2012-12-16 02:18:00,0.0,1.9035,0.0010,-1.00,0.00,0.5,6.5,138.10,28.86,24.65,36.57,0.04,-272.75,-272.75,-39,556,-930,23.2,1.6,-31.4,23.2,1.6,-31.1,5.73,2.41,-30.0,28.1
2012-12-16 02:19:00,0.0,1.9035,0.0011,-1.00,0.00,-0.4,3.8,138.10,28.85,24.65,36.57,0.04,-272.75,-272.75,-39,556,-930,23.2,1.6,-31.4,23.2,1.6,-31.0,5.73,2.41,-30.0,28.1